User: anonymous   Login
Location: Unspecified
(0.0000°N, 0.0000°E)
Time: 20:27:32
(UTC+00:00)
Language:

TISAT 1 - Orbit

View from above orbital plane
View from above orbital plane
View from above satellite
View from above satellite

Ground track
Ground track

The orbit data is extracted from the following two-line orbital elements,

1 36799U 10035E   18350.93854631 +.00000421 +00000-0 +48671-4 0  9996
2 36799 098.1303 132.3144 0011617 334.1741 025.8895 14.90958192457187
Epoch (UTC): 16 December 2018 22:31:30
Eccentricity: 0.0011617
inclination: 98.1303°
perigee height: 587 km
apogee height: 603 km
right ascension of ascending node: 132.3144°
argument of perigee: 334.1741°
revolutions per day: 14.90958192
mean anomaly at epoch: 25.8895°
orbit number at epoch: 45718

The dashed part of the orbit path shows where the satellite is in the earth's shadow,  

DLR